Location: Unspecified
(39.0670°S, 0.0000°E)
Time: 20:44:13
(UTC+00:00)

Envisat - Pass Details

Date: 02 July 2019
Orbit: 764 x 766 km, 98.1° (Epoch: 22 August)

Event Time Altitude Azimuth Distance (km) Brightness Sun altitude
Rises 04:42:32 0° 72° (ENE) 3,238 7.4 -29.7°
Reaches altitude 10° 04:47:04 10° 110° (ESE) 2,324 6.2 -28.8°
Maximum altitude 04:48:01 11° 121° (ESE) 2,292 6.1 -28.6°
Drops below altitude 10° 04:48:57 10° 131° (SE) 2,329 6.0 -28.5°
Sets 04:53:30 0° 169° (S) 3,268 6.3 -27.6°
